Regional Weather Roundup
Issued by NWS Sterling, VA

Home | Current Version | Previous Version | Graphics & Text | Print | Product List | Glossary On
Versions: 1 2 3 4 5 6 7 8 9 10 11 12 13 14 15 16 17 18 19 20 21 22 23 24 25 26 27 28 29 30 31 32 33 34 35 36 37 38 39 40 41 42 43 44 45 46 47 48 49 50
000
ASUS41 KLWX 220310
RWRLWX

REGIONAL WEATHER ROUNDUP
NATIONAL WEATHER SERVICE BALTIMORE MD/WASHINGTON DC
1100 PM EDT SUN SEP 21 2014

Note: "FAIR" indicates few or no clouds below 12,000 feet
with no significant weather and/or obstructions to visibility.
 TC=TEMPERATURE CELSIUS

 * =Non NWS site. Station does not report precipitation (e.g. rain,
    snow, etc.), thunder, or fog.

DCZ001-MDZ009-015-VAZ040>042-051-053>054-220400-
WASHINGTON METRO

CITY           SKY/WX    TMP DP  RH WIND       PRES   REMARKS
WASHINGTON NAT CLOUDY    80  58  46 NW13G18   29.71R
DULLES         CLOUDY    74  58  57 W13       29.74R
ANDREWS AFB    MOCLDY    77  60  55 NW13      29.71R
QUANTICO       MOCLDY    73  63  70 NW6       29.74R
LEESBURG*      MOCLDY    75  61  60 NW14G21   29.75R
MANASSAS*      CLOUDY    75  55  50 NW18G29   29.74R
GAITHERSBURG*  MOCLDY    72  59  64 W12       29.77R

$$

MDZ006>007-011-014-220400-
BALTIMORE METRO

CITY           SKY/WX    TMP DP  RH WIND       PRES   REMARKS
BWI AIRPORT    MOCLDY    74  62  66 W8        29.69R
MD SCIENCE CTR   N/A     77  62  59 MISG      29.69R
MARTIN STATE   PTCLDY    72  68  88 CALM      29.70R
ANNAPOLIS        N/A     72  66  81 NW3       29.69R
FORT MEADE*    CLOUDY    66  64  94 CALM      29.72R

$$

MDZ012-015-019>023-220400-
MARYLAND EASTERN SHORE

CITY           SKY/WX    TMP DP  RH WIND       PRES   REMARKS
OCEAN CITY     CLEAR     73  64  73 SW10      29.70F
SALISBURY      PTCLDY    73  67  81 SW12      29.70S
BAY BRIDGE AP*   N/A     72  68  88 SW3       29.69R
CAMBRIDGE*     PTCLDY    77  68  73 S3        29.68S
EASTON*        PTCLDY    76  67  75 W8        29.73

$$

MDZ017>025-220400-
SOUTHERN MARYLAND

CITY           SKY/WX    TMP DP  RH WIND       PRES   REMARKS
PATUXENT RIVER PTCLDY    76  65  68 SW13      29.70R
ST INIGOES     CLEAR     76  65  68 SW12      29.69R
LEONARDTOWN*   CLEAR     75  63  64 SW8       29.72R

$$

MDZ003>005-220400-
NORTH CENTRAL MARYLAND

CITY           SKY/WX    TMP DP  RH WIND       PRES   REMARKS
FREDERICK*     CLEAR     77  55  47 W14G22    29.75R
HAGERSTOWN APT CLEAR     69  51  52 VRB3      29.76R
WESTMINSTER*   PTCLDY    73  61  64 W13G21    29.73R

$$

MDZ501>502-220400-
WESTERN MARYLAND

CITY           SKY/WX    TMP DP  RH WIND       PRES   REMARKS
OAKLAND*       CLEAR     54  45  71 W13G23    29.89R
CUMBERLAND*    CLEAR     68  45  42 W8G20     29.85R

$$

VAZ025>031-220400-
SHENANDOAH VALLEY

CITY           SKY/WX    TMP DP  RH WIND       PRES   REMARKS
WINCHESTER*    PTCLDY    70  50  49 W5        29.79R
STAUNTON*      CLEAR     69  53  57 W7        29.85R

$$

WVZ021-048>050-054>055-220400-
EASTERN WEST VIRGINIA PANHANDLE

CITY           SKY/WX    TMP DP  RH WIND       PRES   REMARKS
MARTINSBURG    PTCLDY    73  45  36 NW14G25   29.78R
PETERSBURG*    CLEAR     69  44  41 NW7G16    29.86R

$$

VAZ036>039-050-220400-
CENTRAL FOOTHILLS

CITY           SKY/WX    TMP DP  RH WIND       PRES   REMARKS
CHARLOTTESVILL PTCLDY    75  57  53 W9G17     29.77R
ORANGE*        MOCLDY    75  59  57 W6        29.77R

$$

VAZ055>057-220400-
NORTH AND CENTRAL PIEDMONT

CITY           SKY/WX    TMP DP  RH WIND       PRES   REMARKS
FREDERICKSBRG* MOCLDY    76  65  67 W6        29.73R
STAFFORD*      PTCLDY    69  69 100 CALM      29.77R

$$

NCZ024-NYZ072-PAZ021-071-VAZ022-071-220400-
OTHER REGIONAL OBSERVATIONS

CITY           SKY/WX    TMP DP  RH WIND       PRES   REMARKS
NEW YORK CITY  PTCLDY    71  67  87 VRB3      29.65S
PHILADELPHIA   MOCLDY    73  63  70 W6        29.69R
PITTSBURGH     PTCLDY    59  49  69 W14       29.86R
ROANOKE        MOCLDY    69  57  65 NW7       29.90R
RICHMOND       PTCLDY    79  65  62 W14       29.75R
RALEIGH        LGT RAIN  72  66  81 W9G20     29.87R

$$

ANZ530>537-220400-
MARINE OBSERVATIONS

STATION/POSITION TIME  TEMP    WIND        PRES
                       AIR SEA DIR/SP/G
                 (UTC) (F)     (DEG/KT/KT) (MB)
THOMAS PT LIGHT  0300   74 74  250/  4/  5 1006.4R
BALT KEY BRIDGE  0300   75     240/  9/ 10 1004.8R
COVE POINT       0300   77     240/ 11/ 14 1005.2S
LEWISETTA        0300   75 75  250/  7/ 10 1005.5S
SOLOMONS ISLAND  0300      76                N/A
PINEY POINT      0300          260/ 10/ 13   N/A

$$




USA.gov is the U.S. government's official web portal to all federal, state and local government web resources and services.